Temperature
18 19 19 19 19 18 18 17 17 18 17 18 17 16 17 17 17 17 17 18 18 18 17 17 17 17 17 16 16 16 16 15 15 15 14 14 14 14 13 13 13 13 13 13
19 19 19 19 19 19 18 18 18 18 18 18 18 17 17 16 17 17 17 18 18 18 17 17 17 17 17 16 16 16 15 15 15 14 14 14 14 13 13 13 13 13 13 12
18 18 19 19 19 19 19 18 18 18 19 17 16 16 17 17 17 18 18 18 18 18 18 18 17 17 17 16 16 15 15 15 14 14 14 13 13 13 13 12 12 12 12 12
17 19 19 19 19 19 19 19 18 18 18 17 18 19 19 19 19 19 19 18 18 18 18 18 17 17 16 16 16 15 15 14 14 14 13 13 13 13 12 12 12 12 12 11
15 17 18 19 19 19 19 19 18 18 18 18 18 17 17 19 20 20 20 20 19 18 18 18 17 17 16 16 15 15 14 14 14 13 13 13 13 12 12 12 12 11 11 11
15 17 18 19 20 20 19 19 19 18 17 16 17 16 17 20 20 19 19 19 19 18 17 17 17 16 16 15 15 15 14 14 13 13 13 12 12 12 11 11 11 11 11 10
15 16 17 18 19 19 19 19 21 20 19 17 17 20 21 21 20 20 19 19 18 18 17 17 17 16 15 15 15 14 14 13 13 12 12 12 11 11 11 11 11 11 10 10
13 16 17 18 18 18 19 21 21 21 20 20 21 21 21 21 20 19 19 18 18 18 17 17 16 16 15 15 15 14 13 13 12 12 12 11 11 11 10 10 10 10 10 10
15 17 18 18 19 21 21 21 22 22 22 21 21 20 20 20 20 19 19 18 18 17 17 16 16 15 15 15 14 13 13 12 12 12 11 11 11 10 10 10 10 10 9 9
13 14 17 18 20 21 21 22 22 22 22 21 21 21 20 20 19 19 18 18 17 17 16 16 15 15 15 14 14 13 13 12 12 11 11 11 10 10 10 10 9 9 9 9
14 14 16 19 21 21 22 22 22 22 21 21 21 20 20 20 19 19 18 18 17 17 16 16 15 15 14 14 13 13 12 12 11 11 11 10 10 10 10 9 9 9 8 8
15 17 16 19 21 21 21 22 22 21 21 21 21 20 20 19 19 18 18 17 17 16 16 16 15 14 14 13 13 12 12 11 11 11 11 10 10 10 9 9 9 8 8 8
19 19 19 20 20 20 21 21 21 21 21 20 20 20 19 19 18 18 17 17 17 16 16 15 14 14 13 13 12 12 12 11 11 11 10 10 10 9 9 9 8 8 8 7
19 18 18 19 19 20 20 20 20 20 20 19 19 19 18 18 18 17 17 17 16 16 15 15 14 14 13 13 12 12 11 11 11 10 10 10 9 9 9 8 8 8 8 7
18 18 18 18 18 19 19 19 19 19 18 18 18 18 18 18 17 17 16 16 15 15 14 14 14 13 13 12 12 11 11 11 10 10 10 9 9 9 8 8 8 7 7 7
17 17 17 17 17 17 17 18 18 18 17 17 17 17 17 17 17 16 16 15 15 14 14 14 13 13 12 12 11 11 11 10 10 10 9 9 9 8 8 8 7 7 7 7
16 16 16 16 16 16 17 17 17 17 17 17 17 16 16 16 15 15 15 15 14 14 14 13 13 12 12 12 11 11 10 10 10 9 9 9 8 8 8 7 7 7 7 6
15 16 16 16 16 16 16 16 16 16 16 16 16 15 15 15 15 15 14 14 13 13 13 13 12 12 11 11 11 10 10 10 9 9 9 8 8 8 7 7 7 7 6 6
14 15 15 15 15 15 15 15 15 15 15 15 15 15 14 14 14 14 14 13 13 13 13 12 12 11 11 11 10 10 10 9 9 9 8 8 8 7 7 7 6 6 6 6
14 14 14 14 14 14 14 14 14 14 14 14 14 14 13 13 13 13 13 12 12 12 12 12 11 11 11 10 10 9 9 9 8 8 8 8 7 7 7 6 6 6 5 5
12 13 13 13 13 13 13 14 14 13 13 13 13 13 13 13 12 12 12 12 12 12 11 11 11 10 10 10 9 9 9 8 8 8 7 7 7 7 6 6 6 5 5 5
11 12 12 12 12 13 13 13 13 13 13 12 12 12 12 12 12 11 11 11 11 11 10 10 10 10 9 9 9 8 8 8 8 7 7 7 6 6 6 6 5 5 5 4
11 11 11 11 12 12 12 12 12 12 12 12 12 11 11 11 11 11 11 10 10 10 10 10 9 9 9 8 8 8 7 7 7 7 7 6 6 6 5 5 5 4 4 4
10 10 10 10 11 11 11 11 11 11 11 11 11 11 11 10 10 10 10 10 10 9 9 9 9 9 8 8 8 7 7 7 6 6 6 6 5 5 5 4 4 4 4 3
9 9 9 9 10 10 10 10 10 10 10 10 10 10 10 10 10 10 9 9 9 9 9 8 8 8 7 7 7 7 6 6 6 6 5 5 5 4 4 4 4 3 3 3
8 8 8 9 9 9 9 9 9 9 9 9 9 9 9 9 9 9 9 8 8 8 8 8 7 7 7 7 6 6 6 5 5 5 5 4 4 4 4 3 3 3 3 3
7 7 8 8 8 8 8 8 8 8 8 8 8 8 8 8 8 8 8 8 7 7 7 7 6 6 6 6 5 5 5 5 4 4 4 4 4 3 3 3 3 2 2 2
Wind_Speed
5 4 5 6 7 9 8 9 9 9 9 10 11 12 12 11 11 11 10 10 10 9 7 7 6 6 5 5 4 5 6 5 3 2 3 3 3 3 3 4 4 3 4 4
2 3 5 5 7 10 9 7 7 5 8 8 5 8 9 12 14 14 13 12 11 10 9 9 8 7 7 6 5 5 6 5 3 3 4 3 3 3 4 4 4 4 4 4
3 2 1 5 9 10 8 8 9 11 11 6 7 13 16 16 16 16 15 13 13 12 11 10 9 9 9 7 6 6 6 4 4 4 3 3 3 4 4 3 3 4 4 4
2 2 5 9 4 7 8 9 10 8 7 11 12 10 9 11 16 15 14 14 13 11 10 9 8 8 8 7 7 6 5 4 4 4 3 2 3 3 2 2 2 2 3 3
4 4 6 9 5 7 8 8 9 10 8 6 6 5 2 8 12 14 15 12 11 11 10 10 10 10 9 8 7 6 5 5 4 4 4 3 2 1 1 1 2 2 2 3
5 4 6 9 4 4 5 6 7 10 11 10 11 6 8 10 11 11 10 10 11 10 9 10 10 10 11 9 7 7 6 5 4 4 4 3 2 1 0 0 0 2 2 3
5 5 8 9 3 7 5 9 5 10 12 15 13 9 5 11 11 11 11 11 12 12 11 11 11 11 10 9 8 7 6 5 4 4 4 3 2 1 1 0 1 2 3 4
6 5 9 5 7 9 9 3 4 9 11 13 9 4 7 11 12 13 12 11 12 12 10 9 10 11 10 9 7 6 6 5 4 3 3 3 2 1 1 1 1 2 2 4
9 9 6 4 8 6 3 4 5 7 8 10 8 7 8 10 12 12 13 12 11 12 11 9 9 11 11 9 7 7 6 5 4 3 2 2 3 2 1 0 0 1 2 3
5 8 7 7 6 5 5 5 4 6 7 10 9 9 9 10 11 11 11 12 11 12 12 10 9 9 9 8 8 8 7 5 4 3 2 2 2 2 2 2 2 2 3 3
5 7 7 6 6 6 4 4 3 4 6 9 10 9 10 11 11 11 10 10 11 13 13 12 10 9 8 8 9 8 7 5 4 4 3 3 2 3 4 4 5 4 4 4
7 7 5 6 4 2 4 5 6 6 5 6 9 10 10 10 10 10 11 10 10 10 10 10 10 9 8 8 9 9 6 5 4 4 3 3 2 3 5 6 7 8 7 7
6 3 5 4 3 2 3 4 4 6 8 7 7 9 10 9 9 10 10 11 12 12 11 10 10 9 8 8 9 9 8 7 5 4 4 4 3 3 3 5 6 7 8 9
4 2 2 3 4 3 2 1 3 3 4 6 6 7 8 8 8 10 11 12 11 10 10 10 9 9 8 9 9 9 8 8 7 5 5 5 4 4 4 4 4 5 6 9
5 5 5 3 1 0 2 3 4 3 3 4 5 8 9 10 11 10 9 8 9 9 9 9 9 9 8 9 9 9 7 6 5 5 5 5 5 4 4 5 5 5 5 7
4 3 3 3 3 2 2 4 5 5 5 5 6 7 8 9 8 7 8 10 11 11 10 10 10 9 8 9 9 7 7 10 8 5 5 5 5 5 5 5 5 6 6 7
5 4 4 4 5 5 5 6 7 7 6 7 7 7 7 7 7 7 7 8 9 9 9 10 9 7 8 9 9 7 6 7 10 6 5 6 5 6 6 6 6 7 7 8
7 8 7 7 6 6 5 5 5 6 6 6 6 7 8 9 9 9 8 7 6 5 6 7 7 6 7 8 7 6 6 6 6 6 6 6 6 6 6 6 7 8 7 8
5 5 5 5 5 6 5 5 5 5 5 5 7 8 8 8 8 7 6 7 7 7 7 7 9 8 7 9 8 6 6 6 6 6 6 7 7 6 6 7 7 8 8 7
2 2 2 2 3 4 4 4 4 4 5 6 7 6 5 5 5 6 7 7 8 8 7 7 7 7 7 8 8 5 6 7 7 6 6 6 7 7 7 7 8 8 8 8
2 2 1 2 2 2 3 4 5 5 5 6 8 8 7 6 5 6 6 6 6 5 5 8 6 6 6 7 8 6 6 7 7 7 7 7 7 7 7 7 8 8 8 8
2 2 2 2 2 2 2 3 4 5 5 5 6 6 5 5 5 5 7 7 6 6 5 5 5 8 9 8 5 6 7 7 7 6 6 7 7 7 7 8 8 8 8 8
3 2 2 2 3 3 2 2 3 5 6 6 6 6 6 6 6 6 5 5 4 7 6 5 8 11 11 7 6 6 7 7 7 7 7 7 7 7 8 8 8 8 8 8
3 2 2 2 1 1 1 2 2 3 4 4 5 6 6 5 4 5 4 5 6 7 5 7 10 11 9 5 5 6 6 6 6 6 6 6 7 7 7 8 8 8 9 10
2 2 1 1 1 2 3 2 1 2 2 2 3 4 4 5 5 5 4 4 6 5 4 6 9 8 5 4 5 6 6 6 6 6 6 6 7 7 7 8 8 8 8 9
2 2 2 3 3 3 2 2 2 2 2 2 2 2 2 2 3 3 3 4 5 5 4 4 4 5 4 4 5 5 5 6 7 6 6 7 7 8 8 8 10 9 9 9
2 2 2 2 2 2 2 2 3 3 3 4 3 3 3 2 2 3 3 3 4 4 4 4 4 4 4 4 5 5 5 5 6 6 7 7 7 7 8 10 9 9 8 9
Wind_Direction
225 219 192 206 196 181 187 190 190 219 219 233 208 193 184 173 166 166 172 173 172 168 167 162 155 149 143 137 132 127 118 113 117 108 90 74 60 48 45 45 42 34 32 20
249 230 211 228 217 198 206 202 211 225 247 239 186 155 164 173 174 179 182 182 178 173 170 169 166 159 150 145 143 131 123 124 117 100 83 69 56 49 47 37 29 35 31 23
239 281 93 255 223 199 202 200 185 210 229 183 169 183 187 185 185 187 185 181 180 179 178 175 172 163 159 156 143 132 129 124 116 108 94 74 68 62 49 34 35 32 19 18
154 112 228 244 241 196 205 223 207 215 214 190 194 194 191 185 185 187 184 181 181 177 173 169 162 155 148 142 140 136 134 132 129 122 111 93 81 70 48 43 39 26 10 1
141 193 271 289 255 183 188 245 216 209 212 186 130 99 224 202 192 189 184 179 175 171 165 159 157 153 142 140 140 139 146 150 150 142 132 118 106 92 70 61 29 7 348 351
139 169 232 250 250 169 136 264 232 193 190 162 136 166 230 198 181 176 168 163 159 153 148 155 158 150 145 149 150 160 169 168 161 155 149 152 162 164 150 117 341 344 346 336
168 205 253 251 228 128 165 240 220 182 178 169 183 202 189 160 170 168 161 158 154 152 158 164 158 151 151 156 171 176 164 154 153 159 164 167 159 155 149 107 17 353 336 323
158 190 249 232 149 179 216 239 185 181 181 184 193 160 143 157 162 158 155 153 155 157 159 158 158 155 157 173 177 159 150 150 157 165 168 150 143 143 135 120 30 332 327 323
190 211 240 213 211 234 215 216 208 188 187 178 172 173 161 161 161 162 161 160 158 157 155 158 165 163 167 179 164 154 151 160 169 167 168 160 162 174 186 189 225 281 291 301
236 262 259 257 256 257 228 225 221 190 174 168 173 168 163 161 162 162 162 162 158 154 159 169 175 175 174 166 160 155 162 173 176 176 189 194 192 192 196 218 236 254 265 276
245 271 293 283 246 241 233 220 198 169 171 172 165 166 167 167 169 168 165 163 163 166 171 175 174 178 175 165 159 162 171 179 184 189 195 210 226 222 220 227 216 222 238 244
224 231 206 256 279 237 208 212 192 168 162 166 169 171 167 170 170 166 165 162 164 168 170 172 172 179 179 172 166 167 176 188 192 194 199 203 224 275 264 249 263 258 251 250
226 230 206 257 295 251 216 221 196 183 178 171 170 168 165 164 164 162 163 166 173 176 175 173 174 182 186 177 172 175 184 192 193 194 199 203 206 220 272 297 292 282 276 277
229 188 244 250 253 258 216 192 149 151 166 165 160 156 155 152 155 166 176 180 175 170 172 173 177 191 191 178 176 184 191 199 196 198 202 205 210 217 222 242 278 289 288 286
231 210 218 240 259 226 124 119 121 138 144 145 150 156 159 163 172 181 177 165 159 164 174 177 186 200 189 178 182 189 192 198 199 200 204 209 214 220 229 238 247 263 282 292
234 214 206 212 228 219 165 159 168 185 177 168 169 176 176 173 170 165 162 161 165 180 188 189 199 204 189 183 186 192 200 209 204 200 205 212 217 223 233 240 249 256 262 268
204 220 212 214 222 219 208 202 194 192 183 182 186 176 160 152 153 163 174 179 183 188 190 194 203 200 187 185 186 194 199 210 213 209 209 215 221 228 233 237 246 253 258 260
221 223 214 205 205 211 218 213 201 192 193 191 167 154 159 167 178 186 185 175 171 184 201 202 197 188 188 189 191 194 197 205 206 211 217 221 228 230 233 238 245 253 263 270
223 221 219 212 206 197 202 206 204 198 187 165 161 172 179 184 186 182 169 167 178 200 216 209 197 188 194 201 196 194 199 206 214 220 222 231 236 234 234 240 247 252 257 264
241 226 212 212 199 190 199 201 190 184 179 169 166 169 178 187 179 172 171 186 203 208 205 197 193 195 201 206 203 196 202 209 217 223 225 226 232 238 239 243 248 253 257 259
263 246 211 204 214 211 205 195 183 185 182 172 175 185 192 192 182 175 177 206 227 210 195 196 195 203 206 207 205 200 205 211 217 222 226 230 235 240 244 247 250 253 257 261
287 266 243 219 205 233 231 198 186 185 180 181 186 184 180 183 185 190 201 210 214 202 194 200 205 213 214 212 201 203 210 216 221 224 228 231 234 241 247 249 251 255 257 259
292 267 252 236 222 230 237 202 190 185 187 188 189 189 190 194 191 191 219 228 209 208 203 211 221 225 225 213 206 210 216 221 225 227 230 232 234 237 244 250 253 255 258 260
315 300 280 267 210 167 245 250 214 198 193 193 194 192 186 185 207 216 215 213 210 212 213 224 230 232 226 208 208 214 219 224 228 231 233 235 237 241 245 250 254 256 258 261
306 303 292 243 215 228 233 224 193 185 179 190 198 197 193 191 201 215 213 211 215 213 220 232 235 236 221 208 210 215 220 226 229 229 228 235 242 246 250 251 252 257 260 262
286 281 267 252 243 237 219 196 202 208 193 200 226 221 212 206 201 201 206 209 209 212 212 220 225 227 214 213 217 220 224 237 247 244 237 241 246 250 254 255 256 258 261 263
316 320 323 319 303 251 219 205 203 212 206 202 219 223 213 210 210 210 210 210 209 210 215 218 215 215 215 217 223 228 230 233 237 241 244 247 249 252 256 257 261 263 263 265
Height
1505 1502 1504 1504 1505 1509 1513 1516 1522 1517 1515 1506 1504 1505 1508 1512 1516 1521 1524 1528 1531 1534 1537 1540 1543 1545 1547 1549 1551 1552 1553 1553 1554 1554 1554 1554 1553 1553 1552 1552 1551 1550 1549 1548
1504 1500 1502 1503 1501 1504 1506 1507 1509 1508 1508 1498 1499 1503 1507 1510 1513 1516 1520 1524 1528 1531 1535 1538 1540 1543 1546 1548 1550 1551 1552 1552 1553 1553 1553 1553 1552 1552 1551 1550 1550 1549 1547 1546
1510 1503 1502 1507 1497 1498 1499 1498 1501 1504 1498 1495 1498 1499 1500 1503 1507 1510 1514 1519 1523 1527 1531 1535 1538 1541 1544 1546 1548 1549 1550 1551 1551 1552 1552 1551 1551 1551 1550 1549 1548 1547 1546 1545
1511 1508 1516 1498 1485 1486 1489 1489 1489 1488 1487 1488 1489 1491 1495 1498 1501 1506 1511 1515 1520 1524 1528 1532 1536 1539 1542 1544 1546 1547 1548 1549 1550 1550 1550 1550 1550 1549 1548 1548 1547 1546 1545 1544
1514 1514 1509 1493 1483 1483 1488 1487 1481 1483 1484 1486 1489 1493 1495 1496 1498 1501 1506 1511 1516 1521 1525 1529 1533 1537 1539 1542 1543 1545 1546 1547 1548 1548 1548 1548 1548 1547 1547 1546 1545 1544 1543 1542
1513 1512 1513 1492 1477 1477 1482 1488 1475 1476 1479 1483 1487 1496 1491 1490 1494 1499 1504 1509 1514 1519 1523 1527 1531 1534 1537 1539 1541 1542 1544 1545 1546 1546 1546 1546 1546 1546 1545 1544 1543 1542 1541 1540
1510 1509 1500 1479 1475 1478 1492 1485 1470 1471 1473 1477 1479 1480 1481 1486 1490 1495 1501 1506 1511 1516 1520 1524 1528 1531 1534 1536 1538 1540 1542 1542 1543 1544 1544 1544 1544 1543 1543 1542 1541 1540 1539 1537
1507 1508 1499 1472 1474 1477 1474 1467 1467 1468 1469 1472 1474 1477 1480 1484 1487 1492 1497 1503 1508 1512 1517 1521 1525 1528 1531 1533 1536 1538 1539 1540 1541 1541 1541 1542 1541 1541 1540 1539 1538 1537 1536 1535
1487 1483 1471 1468 1467 1466 1466 1466 1465 1466 1468 1470 1473 1476 1479 1482 1486 1490 1495 1500 1504 1509 1514 1518 1522 1525 1528 1530 1533 1535 1536 1537 1538 1539 1539 1539 1539 1538 1537 1537 1535 1534 1533 1531
1480 1472 1466 1465 1464 1464 1464 1464 1465 1465 1467 1469 1471 1474 1477 1480 1484 1488 1492 1497 1501 1506 1510 1514 1518 1522 1525 1528 1530 1531 1533 1534 1535 1535 1536 1536 1535 1535 1534 1533 1532 1531 1529 1527
1474 1467 1463 1461 1460 1461 1462 1462 1463 1465 1466 1468 1470 1472 1475 1478 1481 1485 1490 1494 1499 1503 1507 1511 1515 1518 1522 1524 1526 1528 1529 1530 1531 1532 1532 1532 1532 1532 1531 1530 1529 1527 1526 1524
1468 1461 1461 1459 1459 1460 1460 1461 1462 1463 1465 1467 1469 1471 1474 1476 1480 1483 1487 1492 1496 1500 1504 1508 1512 1515 1518 1520 1522 1524 1525 1526 1527 1528 1528 1528 1528 1528 1527 1527 1525 1524 1522 1521
1459 1458 1458 1458 1458 1459 1459 1459 1460 1462 1463 1465 1467 1470 1472 1475 1478 1482 1485 1489 1493 1497 1501 1504 1508 1511 1514 1516 1518 1519 1520 1522 1523 1524 1524 1524 1524 1523 1523 1522 1521 1520 1518 1516
1456 1456 1456 1456 1456 1457 1457 1458 1459 1460 1462 1464 1465 1468 1470 1473 1476 1479 1483 1486 1490 1494 1497 1501 1504 1507 1509 1511 1513 1514 1516 1517 1518 1519 1519 1519 1519 1518 1517 1516 1515 1514 1513 1511
1452 1453 1454 1454 1454 1454 1455 1456 1456 1458 1459 1461 1463 1465 1467 1470 1473 1476 1480 1484 1487 1490 1493 1496 1499 1502 1504 1506 1508 1509 1511 1512 1513 1513 1514 1514 1513 1513 1512 1511 1509 1508 1506 1505
1448 1449 1450 1450 1451 1451 1452 1453 1454 1455 1457 1458 1460 1462 1465 1467 1470 1473 1476 1480 1482 1485 1488 1491 1494 1497 1499 1501 1502 1504 1505 1506 1507 1507 1508 1508 1507 1507 1506 1505 1503 1502 1500 1498
1444 1444 1445 1446 1447 1448 1449 1450 1451 1452 1454 1456 1457 1459 1462 1464 1467 1470 1473 1476 1478 1481 1484 1486 1489 1492 1493 1495 1496 1498 1499 1500 1501 1501 1501 1501 1501 1500 1499 1498 1497 1495 1493 1492
1440 1440 1441 1442 1443 1444 1445 1447 1448 1449 1451 1452 1454 1456 1458 1460 1463 1465 1468 1471 1474 1477 1479 1482 1484 1486 1488 1489 1490 1492 1493 1493 1494 1494 1495 1494 1494 1493 1492 1491 1490 1488 1486 1485
1435 1436 1437 1438 1439 1440 1441 1442 1444 1445 1447 1449 1451 1452 1454 1457 1459 1462 1464 1467 1469 1471 1474 1477 1479 1480 1482 1483 1485 1485 1486 1487 1487 1488 1488 1487 1487 1486 1485 1484 1482 1480 1478 1476
1431 1432 1433 1434 1435 1437 1438 1439 1440 1442 1443 1445 1447 1449 1451 1453 1456 1458 1460 1462 1464 1466 1469 1471 1473 1474 1476 1477 1478 1479 1479 1480 1480 1480 1480 1480 1479 1478 1477 1476 1475 1473 1470 1468
1428 1429 1429 1430 1432 1433 1434 1436 1437 1438 1440 1441 1443 1445 1447 1449 1451 1453 1455 1457 1460 1463 1464 1466 1467 1469 1470 1471 1472 1472 1473 1473 1473 1473 1473 1472 1472 1471 1470 1468 1466 1465 1462 1460
1426 1426 1427 1428 1429 1429 1431 1432 1433 1435 1436 1437 1439 1441 1443 1445 1447 1449 1451 1453 1455 1457 1459 1460 1461 1463 1464 1464 1465 1465 1466 1466 1466 1466 1465 1465 1464 1463 1461 1460 1458 1456 1454 1451
1424 1424 1424 1425 1425 1426 1427 1428 1429 1431 1432 1433 1435 1437 1439 1440 1442 1444 1446 1448 1450 1452 1453 1454 1455 1456 1457 1458 1458 1459 1459 1459 1459 1458 1458 1457 1456 1455 1453 1452 1450 1448 1445 1443
1421 1421 1422 1422 1423 1423 1423 1424 1426 1427 1428 1430 1432 1433 1435 1436 1438 1440 1441 1443 1445 1446 1447 1448 1449 1449 1450 1450 1451 1451 1452 1452 1451 1451 1450 1449 1448 1447 1445 1443 1441 1439 1436 1434
1419 1419 1419 1419 1419 1420 1421 1421 1422 1423 1425 1426 1428 1429 1431 1432 1434 1435 1436 1438 1439 1440 1441 1441 1442 1443 1443 1443 1444 1444 1444 1444 1444 1443 1442 1441 1440 1439 1437 1435 1432 1430 1427 1424
1417 1417 1416 1417 1417 1417 1418 1419 1419 1420 1421 1422 1424 1425 1427 1428 1429 1430 1431 1432 1433 1434 1435 1435 1436 1436 1436 1437 1437 1437 1437 1437 1436 1436 1435 1433 1432 1430 1428 1426 1423 1421 1418 1415
1414 1414 1414 1414 1414 1415 1415 1416 1416 1417 1417 1418 1419 1421 1422 1423 1424 1425 1426 1427 1428 1428 1429 1430 1430 1430 1430 1430 1430 1430 1429 1429 1429 1428 1426 1425 1423 1421 1419 1417 1414 1412 1409 1406